Weather History for Novato, CA

Change the Weather History Date:

Friday, November 1, 2013

  Actual Average (KAPC) Record (KAPC)
Temperature  
Mean Temperature 55 °F 55 °F  
Max Temperature 73 °F 69 °F 80 °F (1999)
Min Temperature 37 °F 41 °F 31 °F (2003)
Degree Days  
Heating Degree Days 10    
Month to date heating degree days  
Since 1 July heating degree days  
Cooling Degree Days 0    
Month to date cooling degree days  
Year to date cooling degree days  
Growing Degree Days 5 (Base 50)    
Moisture  
Dew Point 41 °F    
Average Humidity 68    
Maximum Humidity 100    
Minimum Humidity 31    
Precipitation  
Precipitation 0.00 in - 1.90 in (2008)
Month to date precipitation  
Year to date precipitation  
Since 1 July precipitation  
Sea Level Pressure  
Sea Level Pressure 30.10 in    
Wind  
Wind Speed 1 mph (SSE)    
Max Wind Speed 8 mph    
Max Gust Speed -    
Visibility 10 miles    
Events Rain    
T = Trace of Precipitation, MM = Missing Value Source: NWS Daily Summary

Daily Weather History Graph

Daily Weather History Graph

Search for Another Location

Airport:

Trip Planner

Search our weather history database for the weather conditions in past years. The results will help you decide how hot, cold, wet, or windy it might be!

Date:

Astronomy

Nov. 01, 2013 Rise Set
Actual Time 7:36 AM PDT 6:10 PM PDT
Civil Twilight 7:09 AM PDT 6:37 PM PDT
Nautical Twilight 6:37 AM PDT 7:09 PM PDT
Astronomical Twilight 6:07 AM PDT 7:39 PM PDT
Moon 5:36 AM PDT (11/1) 5:05 PM PDT (11/1)
Length of Visible Light 11h 28m
Length of Day
10h 34m
Waning Crescent, 4% of the Moon is Illuminated
Nov 1
Waning Crescent
Nov 3
New
Nov 9
First Quarter
Nov 17
Full
Nov 25
Last Quarter

Hourly Weather History & Observations

Time (PDT) Temp. Windchill Dew Point Humidity Pressure Visibility Wind Dir Wind Speed Gust Speed Precip Events Conditions
12:15 AM 48.2 °F - 42.8 °F 82% 30.11 in 10.0 mi Calm Calm - N/A   Clear
12:35 AM 44.6 °F - 41.0 °F 87% 30.11 in 10.0 mi Calm Calm - N/A   Clear
12:55 AM 41.0 °F - 41.0 °F 100% 30.12 in 10.0 mi Calm Calm - N/A   Clear
1:15 AM 42.8 °F - 41.0 °F 93% 30.11 in 10.0 mi Calm Calm - N/A   Clear
1:35 AM 44.6 °F - 44.6 °F 100% 30.11 in 10.0 mi Calm Calm - N/A   Clear
1:55 AM 44.6 °F - 41.0 °F 87% 30.12 in 10.0 mi Calm Calm - N/A   Clear
2:15 AM 44.6 °F - 41.0 °F 87% 30.12 in 10.0 mi Calm Calm - N/A   Clear
2:55 AM 39.2 °F - 37.4 °F 93% 30.12 in 10.0 mi Calm Calm - N/A   Clear
3:15 AM 41.0 °F - 39.2 °F 93% 30.12 in 10.0 mi Calm Calm - N/A   Clear
3:35 AM 41.0 °F - 39.2 °F 93% 30.12 in 10.0 mi Calm Calm - N/A   Clear
3:55 AM 41.0 °F - 39.2 °F 93% 30.12 in 10.0 mi Calm Calm - N/A   Clear
4:15 AM 42.8 °F - 39.2 °F 87% 30.12 in 10.0 mi Calm Calm - N/A   Clear
4:35 AM 44.6 °F - 39.2 °F 81% 30.12 in 10.0 mi Calm Calm - N/A   Clear
4:55 AM 41.0 °F - 41.0 °F 100% 30.13 in 10.0 mi Calm Calm - N/A   Clear
5:15 AM 42.8 °F 41.1 °F 41.0 °F 93% 30.13 in 10.0 mi SSW 3.5 mph - N/A   Clear
5:35 AM 42.8 °F - 41.0 °F 93% 30.13 in 10.0 mi Calm Calm - N/A   Clear
5:55 AM 37.4 °F - 37.4 °F 100% 30.13 in 10.0 mi Calm Calm - N/A   Clear
6:15 AM 41.0 °F - 39.2 °F 93% 30.14 in 10.0 mi Calm Calm - N/A   Clear
6:35 AM 37.4 °F 34.9 °F 37.4 °F 100% 30.14 in 10.0 mi North 3.5 mph - N/A   Clear
6:55 AM 41.0 °F - 41.0 °F 100% 30.14 in 10.0 mi Calm Calm - N/A   Clear
7:15 AM 41.0 °F - 39.2 °F 93% 30.15 in 10.0 mi Calm Calm - N/A   Clear
7:35 AM 41.0 °F - 41.0 °F 100% 30.15 in 10.0 mi Calm Calm - N/A   Clear
7:55 AM 41.0 °F - 41.0 °F 100% 30.15 in 10.0 mi Calm Calm - N/A   Clear
8:15 AM 37.4 °F - 37.4 °F 100% 30.16 in 10.0 mi Calm Calm - N/A   Clear
8:35 AM 42.8 °F - 41.0 °F 93% 30.17 in 10.0 mi Calm Calm - N/A   Clear
8:55 AM 46.4 °F - 42.8 °F 87% 30.17 in 10.0 mi Calm Calm - N/A   Clear
9:15 AM 50.0 °F - 44.6 °F 82% 30.17 in 10.0 mi Calm Calm - N/A   Clear
9:35 AM 55.4 °F - 46.4 °F 72% 30.17 in 10.0 mi SSW 3.5 mph - N/A   Clear
9:55 AM 59.0 °F - 44.6 °F 59% 30.16 in 10.0 mi SW 4.6 mph - N/A Rain Light Rain
10:15 AM 60.8 °F - 44.6 °F 55% 30.16 in 9.0 mi SSE 3.5 mph - N/A   Clear
10:35 AM 62.6 °F - 44.6 °F 52% 30.16 in 10.0 mi SE 4.6 mph - N/A   Clear
10:55 AM 64.4 °F - 44.6 °F 49% 30.15 in 4.0 mi SE 5.8 mph - N/A   Haze
11:15 AM 64.4 °F - 44.6 °F 49% 30.15 in 8.0 mi SE 5.8 mph - N/A   Clear
11:35 AM 64.4 °F - 44.6 °F 49% 30.15 in 8.0 mi SE 5.8 mph - N/A   Clear
11:55 AM 66.2 °F - 44.6 °F 46% 30.15 in 10.0 mi SE 6.9 mph - N/A   Clear
12:15 PM 66.2 °F - 44.6 °F 46% 30.14 in 10.0 mi SE 8.1 mph - N/A   Clear
12:35 PM 68.0 °F - 44.6 °F 43% 30.13 in 10.0 mi SE 5.8 mph - N/A   Clear
12:55 PM 68.0 °F - 44.6 °F 43% 30.12 in 5.0 mi SE 5.8 mph - N/A   Haze
1:15 PM 69.8 °F - 44.6 °F 40% 30.11 in 10.0 mi SE 6.9 mph - N/A Rain Light Rain
3:15 PM 73.4 °F - 41.0 °F 31% 30.06 in 10.0 mi SE 6.9 mph - N/A   Clear
3:35 PM 73.4 °F - 41.0 °F 31% 30.06 in 10.0 mi SSE 4.6 mph - N/A   Clear
3:55 PM 73.4 °F - 41.0 °F 31% 30.05 in 9.0 mi SE 4.6 mph - N/A   Clear
4:15 PM 73.4 °F - 41.0 °F 31% 30.05 in 10.0 mi South 5.8 mph - N/A   Clear
4:35 PM 73.4 °F - 41.0 °F 31% 30.04 in 10.0 mi South 6.9 mph - N/A Rain Light Rain
4:55 PM 73.4 °F - 41.0 °F 31% 30.04 in 10.0 mi South 6.9 mph - N/A   Clear
5:15 PM 71.6 °F - 42.8 °F 35% 30.04 in 10.0 mi SSW 8.1 mph - N/A   Clear
5:35 PM 71.6 °F - 41.0 °F 33% 30.04 in 10.0 mi SSW 5.8 mph - N/A Rain Light Rain
5:55 PM 68.0 °F - 41.0 °F 37% 30.03 in 10.0 mi WSW 3.5 mph - N/A   Clear
6:15 PM 66.2 °F - 41.0 °F 40% 30.03 in 10.0 mi SW 3.5 mph - N/A   Clear
6:35 PM 64.4 °F - 41.0 °F 42% 30.03 in 10.0 mi SW 3.5 mph - N/A   Clear
6:55 PM 60.8 °F - 44.6 °F 55% 30.04 in 10.0 mi South 4.6 mph - N/A   Clear
7:15 PM 59.0 °F - 41.0 °F 51% 30.04 in 10.0 mi Calm Calm - N/A   Clear
7:35 PM 57.2 °F - 41.0 °F 55% 30.04 in 10.0 mi Calm Calm - N/A   Clear
7:55 PM 55.4 °F - 41.0 °F 58% 30.04 in 10.0 mi Calm Calm - N/A   Clear
8:15 PM 51.8 °F - 39.2 °F 62% 30.04 in 10.0 mi Calm Calm - N/A   Clear
8:35 PM 57.2 °F - 41.0 °F 55% 30.03 in 10.0 mi Calm Calm - N/A   Clear
8:55 PM 50.0 °F - 39.2 °F 66% 30.03 in 10.0 mi Calm Calm - N/A   Clear
9:15 PM 50.0 °F - 39.2 °F 66% 30.03 in 10.0 mi Calm Calm - N/A   Clear
9:35 PM 51.8 °F - 39.2 °F 62% 30.03 in 10.0 mi Calm Calm - N/A   Clear
9:55 PM 53.6 °F - 41.0 °F 62% 30.03 in 10.0 mi South 3.5 mph - N/A   Clear
10:15 PM 51.8 °F - 42.8 °F 71% 30.03 in 10.0 mi Calm Calm - N/A   Clear
10:35 PM 50.0 °F - 41.0 °F 71% 30.04 in 10.0 mi Calm Calm - N/A   Clear
10:55 PM 48.2 °F - 41.0 °F 76% 30.04 in 10.0 mi Calm Calm - N/A   Clear
11:15 PM 48.2 °F - 41.0 °F 76% 30.04 in 10.0 mi Calm Calm - N/A   Clear
11:35 PM 50.0 °F - 39.2 °F 66% 30.03 in 10.0 mi Calm Calm - N/A   Clear
11:55 PM 44.6 °F - 37.4 °F 76% 30.03 in 10.0 mi Calm Calm - N/A   Clear